[keps] orb10350.2l.amsat

Ray Hoad ray.hoad at mypbmail.com
Thu Dec 16 19:15:23 PST 2010


SB KEPS @ AMSAT  $ORB10350.N
2Line Orbital Elements 10350.AMSAT

HR AMSAT ORBITAL ELEMENTS FOR AMATEUR SATELLITES IN NASA FORMAT
FROM WA5QGD FORT WORTH,TX December 16, 2010
Send Subscribe/unsubscribe to KEPS at http://www.amsat.org/mailman/listinfo/keps
BID: ORB10350.N

DECODE 2-LINE ELSETS WITH THE FOLLOWING KEY:
1 AAAAAU 00  0  0 BBBBB.BBBBBBBB  .CCCCCCCC  00000-0  00000-0 0  DDDZ
2 AAAAA EEE.EEEE FFF.FFFF GGGGGGG HHH.HHHH III.IIII JJ.JJJJJJJJKKKKKZ
KEY: A-CATALOGNUM B-EPOCHTIME C-DECAY D-ELSETNUM E-INCLINATION F-RAAN
G-ECCENTRICITY H-ARGPERIGEE I-MNANOM J-MNMOTION K-ORBITNUM Z-CHECKSUM

TO ALL RADIO AMATEURS BT

AO-07
1 07530U 74089B   10349.60211824 -.00000027  00000-0  10000-3 0 09549
2 07530 101.3963 358.3873 0011791 280.0324 079.9410 12.53580500651185
FO-29
1 24278U 96046B   10349.95200462 -.00000017  00000-0  18171-4 0 04663
2 24278 098.5185 154.0236 0351022 012.4662 348.4889 13.52955771707683
SO-33
1 25509U 98061B   10350.75081603  .00000120  00000-0  13518-4 0  8606
2 25509 031.4293 196.1007 0352990 086.2146 277.8757 14.28347409634170
RS-22
1 27939U 03042A   10350.67845541  .00000208  00000-0  48819-4 0  8160
2 27939 097.8664 208.1529 0013091 198.7739 161.2980 14.63489576385643
VO-52
1 28650U 05017B   10349.71194890  .00000667  00000-0  90167-4 0 06713
2 28650 097.6697 035.8252 0027910 044.3553 315.9891 14.81874101303574
SO-67
1 35870U 09049F   10350.80939043  .00000889  00000-0  42814-4 0  3846
2 35870 097.3087 034.8780 0003275 148.8342 340.7440 15.21239782 69216
HO-68
1 36122U 09072B   10350.81956510 -.00000045  00000-0  00000 0 0  9399
2 36122 100.4465 049.1960 0007141 281.1629 078.8687 13.16283227 48244
UO-11
1 14781U 84021B   10349.70666410 -.00000056  00000-0 -28078-6 0 04217
2 14781 098.0331 041.7474 0009364 019.2125 340.9487 14.79868438438655
AO-16
1 20439U 90005D   10350.85195002  .00000033  00000-0  28052-4 0   696
2 20439 098.3602 301.8120 0011059 349.5056 010.5890 14.31887717 91528
LO-19
1 20442U 90005G   10349.77248456  .00000002  00000-0  16287-4 0 09806
2 20442 098.3220 305.8448 0011711 346.5721 013.5154 14.32116038091546
AO-27
1 22825U 93061C   10350.86341165  .00000036  00000-0  31096-4 0  7014
2 22825 098.5093 294.2926 0009296 090.8213 269.4036 14.29319869898140
IO-26
1 22826U 93061D   10349.77617437  .00000038  00000-0  31446-4 0 04390
2 22826 098.5044 293.7670 0009885 090.0762 270.1546 14.29578352898107
GO-32
1 25397U 98043D   10350.82388797  .00000090  00000-0  57905-4 0  3589
2 25397 098.3186 348.2505 0002313 090.7585 269.3856 14.23192267646027
NO-44
1 26931U 01043C   10350.79946006  .00000210  00000-0  11406-3 0  6321
2 26931 067.0511 093.4738 0006421 278.3305 081.7086 14.29626509480857
SO-50
1 27607U 02058C   10349.72764634 -.00000091  00000-0  75130-5 0 03449
2 27607 064.5565 165.0725 0051103 006.9255 353.2479 14.71618093429095
CO-55
1 27844U 03031E   10349.58290240  .00000061  00000-0  48372-4 0 00007
2 27844 098.7082 355.9515 0010306 012.1344 348.0075 14.20753900386846
CO-57
1 27848U 03031J   10349.56878386  .00000047  00000-0  42144-4 0 09499
2 27848 098.7136 355.0707 0010192 016.8152 343.3372 14.20541278386790
AO-51
1 28375U 04025K   10349.48600622  .00000041  00000-0  25168-4 0 08496
2 28375 098.0770 332.8159 0083101 267.8020 091.3654 14.40715196339615
CP3
1 31129U 07012N   10349.62146965  .00000137  00000-0  41989-4 0  7480
2 31129 097.9200 019.2875 0102630 031.4557 329.2701 14.52349653194194
CO-65
1 32785U 08021C   10350.63158560  .00000619  00000-0  84948-4 0  8632
2 32785 097.8755 052.8173 0015815 054.0295 306.2368 14.81789712142507
KKS-1
1 33493U 09002B   10350.79545977  .00000695  00000-0  96092-4 0  1335
2 33493 098.1041 112.0937 0018719 270.7627 089.1454 14.81242928102518
SOHLA-1
1 33496U 09002E   10349.75812253  .00000095  00000-0  24360-4 0  2813
2 33496 098.0692 096.6170 0006463 356.6710 003.4461 14.69541390101548
TISAT-1
1 36799U 10035E   10350.77782626  .00000448  00000-0  65913-4 0  4075
2 36799 098.1267 052.0530 0016120 142.6660 217.5672 14.80263099 23321
STUDSAT
1 36801U 10035G   10349.81655459  .00001173  00000-0  16254-3 0 01060
2 36801 098.1288 050.9568 0014608 134.7577 225.4824 14.79877178023171
RAX
1 37223U 0        10348.55369080  .00000330  00000-0  54422-4 0 00289
2 37223 071.9727 086.2100 0022762 269.6151 090.2373 14.77194760003629
OOREOS
1 37224U 10062C   10341.65020651  .00000235  00000-0  41389-4 0 00249
2 37224 071.9721 101.4631 0021269 279.4939 080.3788 14.76858178002591
FASTSAT
1 37225U 10062D   10339.55430316  .00000041  00000-0  13962-4 0 00217
2 37225 071.9720 106.1057 0019965 280.4841 079.4053 14.76483442002287
FAST1-2
1 37227U 0        10345.24707404  .00000089  00000-0  20775-4 0 00254
2 37227 071.9728 093.5629 0019225 270.0891 089.8078 14.76374882003123
NOAA-10
1 16969U 86073A   10350.12207525  .00000008  00000-0  20946-4 0  3186
2 16969 098.6401 017.2198 0012889 043.2366 316.9833 14.27437568261538
NOAA-11
1 19531U 88089A   10350.25925473 -.00000256  00000-0 -10979-3 0  3255
2 19531 098.7623 076.1306 0011263 354.7207 005.3834 14.14898014146880
NOAA-12
1 21263U 91032A   10350.33529507  .00000044  00000-0  37201-4 0  8143
2 21263 098.7601 003.4265 0012418 002.6195 357.5042 14.25673635 18351
MET-3/5
1 21655U 91056A   10349.59365949  .00000051  00000-0  10000-3 0 09896
2 21655 082.5552 180.4721 0012489 256.1485 103.8296 13.17024322929550
MET-2/21
1 22782U 93055A   10350.88287236  .00000112  00000-0  88019-4 0  9664
2 22782 082.5471 107.5200 0020958 249.4060 110.4852 13.83652812873349
OKEAN-4
1 23317U 94066A   10350.78417804  .00000361  00000-0  41394-4 0  4214
2 23317 082.5394 183.4204 0022428 004.5022 355.6398 14.82909652873511
NOAA-14
1 23455U 94089A   10350.37757619  .00000045  00000-0  46896-4 0  3050
2 23455 098.8668 069.7366 0010275 079.3734 280.8587 14.13803856823247
NOAA-15
1 25338U 98030A   10350.52165938 -.00000120  00000-0 -32817-4 0  6345
2 25338 098.6385 334.3537 0009768 264.1414 095.8655 14.24871405654719
RESURS
1 25394U 98043A   10349.60460391 -.00000000  00000-0  17522-4 0  6756
2 25394 098.2993 357.7543 0002374 058.6715 301.4690 14.24218688646178
FENGYUN1
1 25730U 99025A   10350.47012989  .00000732  00000-0  45119-3 0  2090
2 25730 098.8031 310.8466 0020754 104.7013 255.6459 14.08474453597344
OKEAN-0
1 25860U 99039A   10349.77492886  .00000110  00000-0  24215-4 0 01788
2 25860 097.8590 316.5614 0000832 104.2641 255.8662 14.73692466613640
NOAA-16
1 26536U 00055A   10350.54717423  .00000286  00000-0  17940-3 0  1121
2 26536 099.1601 012.2183 0010692 182.1045 178.0087 14.12590669527576
NOAA-17
1 27453U 02032A   10350.51957994  .00000168  00000-0  91003-4 0  1046
2 27453 098.4073 033.3866 0011172 328.6243 031.4278 14.24219161440658
NOAA-18
1 28654U 05018A   10350.49134474  .00000286  00000-0  18257-3 0  5925
2 28654 098.9736 296.4242 0013599 259.5344 100.4302 14.11418321287156
NOAA-19
1 33591U 09005A   10350.51926593  .00000282  00000-0  18066-3 0  7842
2 33591 098.8093 288.9266 0014689 131.1812 229.0617 14.11113545 95621
HUBBLE
1 20580U 90037B   10349.82996429  .00000477  00000-0  23579-4 0  6883
2 20580 028.4683 133.9318 0003271 330.3731 029.6707 15.01116541932076
ISS
1 25544U 98067A   10351.08145596  .00018521  00000-0  13487-3 0  4716
2 25544 051.6476 014.4046 0008022 357.9586 036.2341 15.73344162692243
CO-58
1 28895U 05043F   10349.67320392  .00000263  00000-0  64047-4 0 07537
2 28895 097.9916 227.8739 0019010 076.3393 283.9939 14.59980011273468
FALCON
1 30776U 07006E   10349.52858553  .00000909  00000-0  67476-4 0  9794
2 30776 035.4340 023.0713 0001699 314.7310 045.3268 15.04009180207379
MAST
1 31126U 07012K   10349.67005652  .00000173  00000-0  49355-4 0 00375
2 31126 097.9179 022.0853 0095325 022.3006 338.2269 14.53654163194425
CAPE1
1 31130U 07012P   10350.58524641  .00000165  00000-0  48469-4 0   563
2 31130 097.9194 020.0132 0102997 028.8372 331.8452 14.52266505194135
COMPASS
1 32787U 08021E   10350.73953860  .00000601  00000-0  82150-4 0  8567
2 32787 097.8740 052.7810 0016676 053.6231 306.6598 14.82079938142536
AAUSAT2
1 32788U 08021F   10349.71163816  .00000600  00000-0  81691-4 0 08476
2 32788 097.8733 051.9410 0016132 057.8550 302.4195 14.82236929142399
DO-64
1 32789U 08021G   10349.89922234  .00001268  00000-0  16424-3 0 08655
2 32789 097.8819 052.8282 0016270 056.0056 304.2674 14.82494479142429
CO-66
1 32791U 08021J   10349.30432522  .00000509  00000-0  70969-4 0 08494
2 32791 097.8748 051.3562 0016983 057.0472 303.2340 14.81830225142276
RS-30
1 32953U 08025A   10350.75943174  .00000010  00000-0  00000 0 0  3046
2 32953 082.5019 276.1445 0020158 064.0936 296.2226 12.43009850116427
TACSAT-3
1 35001U 09028A   10349.94007183  .00006644  00000-0  14570-3 0 04701
2 35001 040.4548 200.7069 0023887 286.8861 072.9336 15.44040508088712
PHARMSAT
1 35002U 09028B   10349.90933454  .00006192  00000-0  13465-3 0 04268
2 35002 040.4693 198.4274 0025989 289.2288 070.5729 15.44322016088739
HAWKSAT1
1 35003U 09028C   10350.81022139  .00016638  00000-0  28872-3 0  4635
2 35003 040.4575 180.6745 0024859 318.4999 041.4021 15.50069056 89017
CP6
1 35004U 09028D   10350.85145505  .00022595  00000-0  36419-3 0  4650
2 35004 040.4562 177.3966 0024310 325.1716 034.7498 15.52004943 89048
AEROCUB3
1 35005U 09028E   10350.82776191  .00416186  00000-0  15945-2 0  5642
2 35005 040.4589 153.8651 0023486 348.1753 011.8515 15.85095971 89309
METEOR-M
1 35865U 09049A   10350.67821250  .00000176  00000-0  10000-3 0  9289
2 35865 098.7349 042.9371 0002134 181.7313 178.3809 14.21833517 64651
RS-38
1 35869U 09049E   10350.77023015  .00000177  00000-0  10000-3 0  9402
2 35869 098.7322 043.0679 0004281 189.0786 171.0281 14.21996109 64672
/EX




More information about the Keps mailing list